Location: Caltech
(34.1382°N, 118.1253°W)
Time: 14:18:43
(UTC-07:00)

CZ-2C R/B - Visible Passes

Search period start: 24 May 2015 00:00
Search period end: 03 June 2015 00:00
Orbit: 669 x 785 km, 98.1° (Epoch: 24 May)

Date Brightness Start Highest point End Pass type
(mag) Time Alt. Az. Time Alt. Az. Time Alt. Az.
25 May 4.8 20:26:53 10° SSW 20:31:11 26° W 20:35:23 10° NW visible
27 May 4.9 20:29:49 10° SSW 20:34:01 24° W 20:38:04 10° NW visible
29 May 5.0 20:32:47 10° SW 20:36:50 22° W 20:40:43 10° NW visible
31 May 5.1 20:35:46 10° SW 20:39:40 21° W 20:43:22 10° NW visible
02 Jun 5.1 20:38:46 10° SW 20:42:29 19° W 20:45:58 10° NW visible
